Погода в Медвежьегорске

Погода в Медвежьегорске : погода сейчас, прогноз погоды и архив. Всё, что Вы хотите узнать о погоде в Медвежьегорске!

Хотите узнать прогноз погоды в Медвежьегорске? Тогда Вам сюда: Погода в Медвежьегорске

Поиск расширенной информации на нашем сайте:

Другие новости

Новости СМИ2

Главная страница сайта

Новости сайта

03.07.2017

Напоминаем, что на нашем специализированном сайте Метеоцентр.Азия вы можете получить высокодетализированные автоматические прогнозы погоды по пунктам России, СНГ и мира в авиационном формате (включающие направление и скорость ветра, видимость, явления погоды, количество и форму облачности, нижнюю и верхнюю границу облачности).


Погода в Медвежьегорске - сегодня

Время (UTC), дата Ветер
(°,м/с) 
Видим.   Явления Облачность Т
(°С)
Тd
(°С)
f(%) Тe
(°С)
Pmin
(гПа)
dP
(гПа)
Po
(мм)
O2
(г/м3)
Тmin Tmax R s Состояние
почвы
00 16.06.18 тихо ()   20000 м    10/0 средняя, верхняя 
[Ac lent|Cc]
+9.3 +7.9 91 +9  1016.3  0.4  755  293           
09 16.06.18 290 (З) 20000 м    9/8 800 м верхняя 
[Cu Sc|Cc]
+23.3 +10.7 45 +25  1017  0.3  756  279           
12 16.06.18 240 (ЮЗ) 20000 м    9/6 600 м верхняя 
[Cu Sc|Cc]
+24.7 +9.1 37 +25  1016.8  -0.2  756  278           
15 16.06.18 250 (З) 20000 м    8/8 600 м 
[Cu Sc]
+24.7 +6.9 32 +25  1016.2  -0.6  755  278           
21 16.06.18 300 (СЗ) 20000 м    ясно 
+18.8 +10.6 59 +22  1018  1.4  756  283           
00 17.06.18 тихо ()   20000 м    6/0 верхняя 
[Ci sp]
+13.2 +10.6 84 +15  1018.8  0.6  757  289           
09 17.06.18 130 (ЮВ) 20000 м    8/1 1000 м средняя, верхняя 
[Cu hum|Ac cast|Ci fib]
+22.2 +13.6 58 +28  1018.9  -0.3  757  279           
12 17.06.18 120 (ЮВ) 20000 м    4/3 1000 м верхняя 
[Cu med, cong|Cc]
+22 +11.7 52 +25  1018  -1  756  280           
15 17.06.18 130 (ЮВ) 20000 м    8/3 1000 м средняя 
[Sc|Ac trans]
+22.6 +9.4 43 +23  1017.4  -1  756  280           
21 17.06.18 тихо ()   20000 м    10/8 500 м средняя 
[Sc|Ac und]
+16.1 +10.5 69 +18  1017.4  756  286           
09 18.06.18 130 (ЮВ) 20000 м  {ливн. осадки}  9/4 600 м средняя 
[Sc|Ac As]
+18.7 +13.9 74 +27  1014.8  -0.9  754  282           
15 18.06.18 120 (ЮВ) 20000 м    9/4 600 м средняя 
[Sc|Ac As]
+18.5 +12.5 68 +24  1010.9  -2.3  751  281      0.0     
21 18.06.18 тихо ()   20000 м    10/0 средняя, верхняя 
[Ac cast|Cs]
+14.7 +12.5 87 +19  1008.9  -0.6  749  284           
00 19.06.18 тихо ()   20000 м    10/0 средняя, верхняя 
[Ac cuf|Cs]
+14 +12.5 91 +19  1007.6  -1.4  748  284           
03 19.06.18 140 (ЮВ) 20000 м  {ливн. осадки}  10/0 средняя, верхняя 
[Ac cast|Cc]
+16.5 +11.9 74 +22  1006.4  -1  748  282  +13.7    0.0     
09 19.06.18 270 (З) 20000 м    3/3 600 м 
[Cu hum]
+22.3 +9.7 45 +23  1002.7  -2  745  276           
12 19.06.18 210 (ЮЗ) 20000 м    10/0 верхняя 
[Cu hum|Cs]
+21.5 +9.5 46 +22  1001  -1.6  744  276           
15 19.06.18 210 (ЮЗ) 20000 м    10/0 верхняя 
[Cs]
+18.3 +8.1 51 +19  999.5  -1.6  743  279           
03 20.06.18 290 (З) 2{10}  20000 м  в посл. час ливневой дождь  10/10 540 м кучево-дожд. 
[Cb cap]
+9.9 +8.8 93 +10  992.1  0.1  737  285  +9.7       
21 20.06.18 310 (СЗ) 20000 м    ясно 
+8.4 +8 97 +9  999.5  1.2  742  289           
00 21.06.18 300 (СЗ) 20000 м    ясно 
+8 +5.9 87 +8  1000.3  0.9  743  290           
03 21.06.18 300 (СЗ) 20000 м    ясно 
+11.5 +6.1 69 +12  1001.1  0.9  744  286  +7.3         
09 21.06.18 300 (СЗ) 3{10}  20000 м    4/4 1000 м 
[Cu hum]
+18.8 +3.5 36 +19  1002.7  1.1  745  280           
12 21.06.18 280 (З) 20000 м    5/5 1000 м 
[Cu hum]
+20.5 +0.7 27 +21  1003.4  0.7  746  279           
15 21.06.18 280 (З) 20000 м    3/3 1000 м 
[Cu hum]
+20.4 +1.4 28 +20  1004.2  0.7  746  280           
Время (UTC), дата Ветер
(°,м/с) 
Видим.   Явления Облачность Т
(°С)
Тd
(°С)
f(%) Тe
(°С)
Pmin
(гПа)
dP
(гПа)
Po
(мм)
O2
(г/м3)
Тmin Tmax R s Состояние
почвы

Для получения пояснительной информации подведите курсор к названию столбца.

ПОГОДА в Медвежьегорске - архив

Всё, что Вы хотите узнать о погоде в Медвежьегорске - удобно и подробно!

Выберите нужную дату (начиная с 1 января 2015* года) и нажмите кнопку "Найти".
Будут отображены архивные сводки погоды по пункту Медвежьегорск, начиная с указанной даты.


Отображать данные в формате CSV (для использования в таблицах Excel)


Внимание! Наш архив погоды предназначен исключительно для личного некоммерческого использования в познавательных целях. Если Вам необходимы официальные справки о состоянии погоды (для производственных, юридических, коммерческих и т.п. целей), обращайтесь в органы Росгидромета.

*Примечание: данная дата относится к архиву по метеостанциям СССР (Россия, СНГ, Балтия).
Архив по метеостанциям Зарубежной Европы и Азии (кроме Китая) хранится 10 дней, по другим регионам земного шара (Китай, Африка, Америка, Австралия, Океания) - 1 день.

Медвежьегорск - район местоположения метеостанции


Название, широта, долгота, высота метеостанции:
Медвежьегорск 62.9°ш. 34.4°д. 81 м над ур. моря [Российская Федерация]

Дополнительная информация

В oтличие oт бoльшинства пoгoдных сайтoв мы публикуем пoдрoбную метеoинфoрмацию в детальнoм прoфессиoнальнoм фoрмате.

Характеристики температуры и влажнoсти вoздуха измеряются на высoте 2 м в тени вдали oт зданий и деревьев.
Скoрoсть ветра измеряется на высoте 10 м (на урoвне рoста челoвека скoрoсть ветра ниже в 1.5-2 раза). Если метеoстанция нахoдится в гoрoде или в лесу, тo скoрoсть ветра занижена на 2-4 м/с пo сравнению с oткрытым местoм. Скoрoсть ветра над акватoриями крупных рек и oзёр, а также на вершинах хoлмoв на 2-5 м/с выше, чем в oбычных услoвиях.
Атмoсфернoе давление в разных тoчках местнoсти мoжет значительнo oтличаться oт давления на метеoстанции, в зависимoсти oт услoвий рельефа (при пoдъёме на 10 м давление пoнижается примернo на 1 мм рт.ст.).